[[[{"header":{"parameterUnit":"kt","parameterCategory":2,"dx":1,"dy":1,"la1":30.253999710083008,"la2":30.299108505249023,"lo1":-89.0895004272461,"lo2":-89.04439544677734,"nx":28,"ny":28,"refTime":"2022-10-19T21:00:00:Z","depth":0,"parameterNumber":1,"parameterNumberName":"U-component_of_WINDS"},"data":[6.2063,6.2164,6.2145,6.2251,6.2253,6.2321,6.234,6.2363,6.2377,6.2457,6.25,6.2494,6.2501,6.2548,6.2593,6.2589,6.2607,6.2653,6.264,6.2451,6.2423,6.2397,6.2368,6.266,6.266,6.2836,6.2837,6.2838,6.1913,6.1915,6.1969,6.2007,6.2051,6.1994,6.2021,6.2061,6.2126,6.2146,6.2189,6.2259,6.2313,6.2306,6.2355,6.24,6.2375,6.2413,6.2406,6.2407,6.2206,6.2177,6.2432,6.2432,6.2431,6.2431,6.2431,6.2431,6.1636,6.1699,6.1712,6.177,6.1785,6.1812,6.1869,6.186,6.1912,6.1962,6.1934,6.2008,6.2025,6.2078,6.2093,6.2148,6.2103,6.214,6.2147,6.2155,6.2164,6.1898,6.2158,6.2157,6.2156,6.2155,6.2155,0,6.1425,6.1406,6.1458,6.1503,6.1545,6.158,6.161,6.1645,6.1602,6.1648,6.1713,6.1748,6.1816,6.1874,6.1919,6.1927,6.1872,6.1869,6.1892,6.1902,6.1902,6.1895,6.156,6.186,6.1858,6.1856,6.1855,6.1854,6.1137,6.1217,6.1226,6.1264,6.1277,6.1342,6.1376,6.1333,6.1372,6.1403,6.1462,6.1522,6.1566,6.1676,6.1666,6.1718,6.1691,6.1806,6.1699,6.1705,6.1684,6.1677,6.1681,6.1826,6.183,6.1833,6.1835,0,6.0975,6.0949,6.1068,6.107,6.1073,6.1159,6.116,6.1224,6.121,6.1296,6.1313,6.1292,6.1358,6.1331,6.1403,6.1386,6.1519,6.1496,6.1509,6.15,6.1595,6.1583,6.1922,6.196,6.1666,6.1669,6.1672,0,6.0716,6.0825,6.0778,6.0849,6.0966,6.092,6.1037,6.1037,6.1054,6.1121,6.1057,6.1121,6.1077,6.1137,6.1113,6.1218,6.1234,6.1225,6.1216,6.1227,6.1227,6.1243,6.1226,6.1203,6.1202,6.12,6.1199,0,6.046,6.0567,6.0683,6.0703,6.0719,6.0775,6.0784,6.0804,6.084,6.0884,6.0906,6.0962,6.0991,6.1034,6.1001,6.0928,6.1132,6.1026,6.1122,6.1122,6.1165,6.1162,6.1472,6.1197,6.1196,6.1196,6.1195,0,6.0246,6.0291,6.0467,6.0476,6.0506,6.0586,6.0634,6.0697,6.0723,6.0712,6.0747,6.07,6.0796,6.069,6.0819,6.0732,6.0764,6.0766,6.0772,6.0774,6.0655,6.0825,6.113,6.1157,6.0781,6.0777,6.0774,0,5.9954,6.0127,6.0089,6.0259,6.0334,6.0253,6.034,6.0367,6.036,6.0422,6.0415,6.0488,6.0404,6.0423,6.0491,6.0486,6.06,6.0471,6.0554,6.0557,6.0541,6.0822,6.0871,6.1067,6.073,6.0735,6.0738,0,5.9725,5.9748,5.9782,5.98,5.9831,5.9896,5.9998,6.006,6.0102,6.0145,6.0224,6.0332,6.0269,6.0304,6.0273,6.0346,6.0522,6.0271,6.027,6.031,6.0709,6.0752,6.0786,6.0484,6.049,6.0494,6.0703,0,5.9392,5.948,5.9572,5.9624,5.9672,5.9781,5.9752,5.9805,5.9768,5.976,5.9883,5.9903,5.9969,6.0004,5.9972,6.0149,6.0114,6.005,5.9942,6.013,6.0197,6.0225,5.9843,5.9839,5.9837,5.9834,0,0,5.9116,5.9241,5.92,5.9299,5.9335,5.9252,5.9369,5.9396,5.9454,5.9479,5.942,5.9573,5.9593,5.9745,5.9801,5.9832,5.9858,5.9796,6.0042,6.0066,6.0087,6.016,6.019,5.9829,5.9828,5.9828,5.9827,0,5.8988,5.9012,5.9131,5.9156,5.9193,5.9179,5.9208,5.923,5.923,5.9355,5.9283,5.9355,5.9484,5.951,5.9541,5.9778,5.9719,5.9802,5.9934,6.0016,6.0043,6.0066,6.0144,6.0173,5.982,5.982,5.9821,0,5.8752,5.8768,5.8825,5.891,5.8934,5.9018,5.8897,5.8994,5.9054,5.8961,5.9085,5.9094,5.9131,5.9282,5.935,5.9297,5.9592,5.9499,5.9516,5.9521,5.9599,5.9631,5.966,5.9276,5.9275,5.9273,0,0,5.8645,5.8728,5.8734,5.888,5.89,5.8883,5.8927,5.8896,5.8931,5.8946,5.8955,5.8992,5.9064,5.9114,5.9182,5.9354,5.9355,5.9433,5.9459,5.948,5.9497,5.958,5.9612,5.9266,5.9266,5.9266,0,0,5.8594,5.8605,5.8563,5.873,5.8766,5.8782,5.8871,5.882,5.8879,5.8863,5.8817,5.8825,5.8967,5.898,5.8891,5.9141,5.9036,5.9057,5.9128,5.916,5.9185,5.9177,5.877,0,0,0,0,0,5.8449,5.8603,5.8565,5.8589,5.8699,5.8803,5.8816,5.8781,5.8704,5.8775,5.8774,5.8711,5.892,5.8841,5.8865,5.8964,5.9178,5.9194,5.9208,5.934,5.9374,5.9402,0,0,0,0,0,0,5.8458,5.8487,5.856,5.8584,5.8608,5.8797,5.8659,5.8653,5.8696,5.8682,5.8713,5.8712,5.8685,5.8826,5.8849,5.8943,5.8762,5.9184,5.9197,5.9209,5.9352,5.9379,5.9403,0,0,0,0,0,5.8465,5.8489,5.8675,5.8581,5.8602,5.8592,5.8653,5.8647,5.8679,5.868,5.8677,5.8649,5.8689,5.8705,5.8839,5.8933,5.8746,5.8755,5.9193,5.9203,5.9213,5.9365,0,0,0,0,0,0,5.847,5.8484,5.8678,5.8683,5.8521,5.8581,5.8589,5.8642,5.8674,5.8673,5.8613,5.8601,5.8693,5.8705,5.8718,5.8932,5.8733,5.8742,5.8748,5.9201,5.9209,5.9216,0,0,0,0,0,0,5.8471,5.8489,5.8681,5.8607,5.8603,5.8571,5.8578,5.8689,5.8676,5.8605,5.8596,5.8608,5.8673,5.8706,5.8716,5.889,5.8723,5.8732,5.8738,5.8741,5.9207,5.9214,0,0,0,0,0,0,5.8478,5.8493,5.8605,5.8603,5.8599,5.8653,5.8668,5.8783,5.8612,5.8605,5.8596,5.8588,5.8676,5.8685,5.8715,5.8885,5.8889,5.8724,5.8729,5.8733,5.8736,0,0,0,0,0,0,0,5.8483,5.8388,5.8648,5.8599,5.8595,5.873,5.8731,5.8733,5.8611,5.8604,5.8598,5.8592,5.8676,5.8685,5.8694,5.8881,0,0,5.8723,5.8727,0,0,0,0,0,0,0,0,5.8381,5.8386,5.8649,5.865,5.8651,5.873,5.8731,5.8732,5.861,5.8604,5.8599,5.8594,5.8678,5.8686,5.8693,0,0,0,0,0,0,0,0,0,0,0,0,0,0,0,5.8649,5.865,0,5.873,5.8731,5.8732,5.8609,5.8604,5.86,5.8596,5.868,5.8686,5.8693,0,0,0,0,0,0,0,0,0,0,0,0,0,0,0,0,0,0,0,0,0,0,0,0,0,0,0,0,0,0,0,0,0,0,0,0,0,0,0,0,0,0,0,0,0,0,0,0,0,0,0,0,0,0,0,0,0,0,0,0,0,0,0,0,0,0,0,0,0]}],[{"header":{"parameterUnit":"kt","parameterCategory":2,"dx":1,"dy":1,"la1":30.253999710083008,"la2":30.299108505249023,"lo1":-89.0895004272461,"lo2":-89.04439544677734,"nx":28,"ny":28,"refTime":"2022-10-19T21:00:00:Z","depth":0,"parameterNumber":2,"parameterNumberName":"V-component_of_WINDS"},"data":[0.9013,0.9075,0.9036,0.9089,0.9064,0.9094,0.9092,0.9086,0.9072,0.9103,0.9115,0.9084,0.9055,0.906,0.907,0.9056,0.9063,0.911,0.9086,0.8906,0.8879,0.8853,0.8835,0.9113,0.9113,0.9276,0.9278,0.9279,0.8878,0.8853,0.8871,0.8863,0.8877,0.8807,0.8795,0.8812,0.8841,0.8825,0.8835,0.886,0.8875,0.8831,0.8839,0.8867,0.8835,0.8871,0.8868,0.8864,0.8671,0.8652,0.8896,0.8896,0.8896,0.8896,0.8896,0.8896,0.8621,0.8661,0.8633,0.8652,0.8638,0.8633,0.8664,0.8625,0.8643,0.8648,0.8601,0.8634,0.8612,0.8605,0.8595,0.8618,0.8572,0.8601,0.8607,0.8615,0.8628,0.8392,0.8619,0.8618,0.8617,0.8616,0.8616,0,0.8422,0.8387,0.8403,0.8407,0.8419,0.8419,0.8413,0.8431,0.8348,0.8367,0.8391,0.8398,0.8413,0.8432,0.8433,0.8415,0.8346,0.8337,0.8356,0.8378,0.8396,0.8385,0.8069,0.8331,0.8328,0.8326,0.8325,0.8324,0.8158,0.8211,0.8165,0.8181,0.8169,0.8197,0.8205,0.8128,0.8141,0.8123,0.8163,0.818,0.8191,0.8237,0.8193,0.8205,0.8172,0.8275,0.8173,0.8191,0.817,0.8168,0.8171,0.8296,0.83,0.8303,0.8305,0,0.8013,0.7952,0.8021,0.7972,0.7962,0.802,0.7978,0.8016,0.7975,0.8021,0.8027,0.7964,0.799,0.7929,0.7948,0.7915,0.8008,0.7977,0.8013,0.8003,0.8088,0.808,0.8378,0.8412,0.8124,0.8127,0.813,0,0.7764,0.7837,0.7741,0.7785,0.7862,0.7782,0.7861,0.7834,0.7814,0.785,0.7762,0.7797,0.7714,0.7741,0.7693,0.7759,0.7763,0.7741,0.7728,0.7749,0.7751,0.7755,0.7741,0.7698,0.7696,0.7695,0.7694,0,0.7543,0.7578,0.7648,0.7647,0.7604,0.7639,0.7623,0.7601,0.7612,0.7616,0.7622,0.7634,0.764,0.765,0.7589,0.7522,0.7669,0.7564,0.7646,0.7648,0.7683,0.7682,0.796,0.7692,0.7692,0.7691,0.7691,0,0.7333,0.7338,0.7451,0.7411,0.7424,0.7472,0.7476,0.7503,0.7487,0.746,0.7463,0.7398,0.7452,0.7352,0.7425,0.7354,0.7365,0.735,0.7355,0.7356,0.7246,0.7409,0.7682,0.7707,0.7356,0.7353,0.7351,0,0.7094,0.7192,0.7124,0.7234,0.7271,0.7167,0.7219,0.7208,0.7176,0.7202,0.7167,0.7199,0.7112,0.7114,0.7158,0.7123,0.7215,0.7109,0.7148,0.715,0.7153,0.7403,0.7458,0.7628,0.7314,0.7318,0.7321,0,0.6901,0.6849,0.6874,0.6868,0.6841,0.6873,0.6933,0.6947,0.6968,0.6968,0.7015,0.7061,0.6996,0.7001,0.6951,0.7,0.7151,0.6925,0.6923,0.6966,0.7292,0.7343,0.7372,0.7105,0.711,0.7113,0.7292,0,0.6593,0.6636,0.67,0.6695,0.671,0.6777,0.6712,0.6736,0.6684,0.6649,0.672,0.6699,0.6717,0.6735,0.6687,0.682,0.6788,0.672,0.6619,0.6784,0.6841,0.6865,0.6538,0.6535,0.6532,0.6529,0,0,0.6379,0.6439,0.6365,0.6421,0.6429,0.6322,0.6399,0.6395,0.6392,0.64,0.6342,0.6405,0.6392,0.6485,0.6531,0.654,0.6557,0.6504,0.6706,0.6726,0.6745,0.6807,0.6833,0.6525,0.6523,0.6522,0.6522,0,0.6253,0.6239,0.6316,0.6308,0.6294,0.6253,0.6272,0.624,0.6221,0.6292,0.6204,0.624,0.6296,0.6291,0.6296,0.649,0.6423,0.65,0.6624,0.668,0.6704,0.6725,0.6791,0.6817,0.6515,0.6515,0.6515,0,0.605,0.6025,0.6056,0.6071,0.6062,0.6105,0.5981,0.6033,0.6064,0.5949,0.6021,0.6001,0.5992,0.609,0.6132,0.6081,0.6304,0.6224,0.624,0.6244,0.6295,0.6324,0.6349,0.6013,0.6011,0.601,0,0,0.595,0.5991,0.5942,0.604,0.604,0.5981,0.5999,0.5949,0.5942,0.594,0.5914,0.5911,0.5941,0.5963,0.5989,0.6107,0.6098,0.6165,0.6189,0.6208,0.6223,0.6279,0.6307,0.6004,0.6004,0.6004,0,0,0.5903,0.5849,0.5798,0.5904,0.5899,0.5859,0.5922,0.5859,0.5876,0.5861,0.5782,0.5778,0.5869,0.5855,0.5785,0.5952,0.5853,0.5868,0.5958,0.5987,0.601,0.6012,0.5658,0,0,0,0,0,0.5742,0.5855,0.5809,0.5818,0.5839,0.5884,0.5886,0.5823,0.5752,0.5803,0.577,0.5698,0.58,0.5737,0.5747,0.5825,0.5931,0.5944,0.5956,0.61,0.6131,0.6157,0,0,0,0,0,0,0.5744,0.5755,0.5806,0.5772,0.5776,0.5879,0.5746,0.5732,0.5745,0.573,0.5707,0.5698,0.5646,0.5727,0.5738,0.5813,0.5655,0.5936,0.5947,0.5957,0.611,0.6136,0.6157,0,0,0,0,0,0.5746,0.5754,0.5805,0.577,0.5773,0.5716,0.5741,0.5728,0.5738,0.5689,0.5678,0.5688,0.5649,0.5654,0.5733,0.581,0.5647,0.5651,0.5943,0.5952,0.596,0.6123,0,0,0,0,0,0,0.5747,0.5743,0.5804,0.5803,0.5722,0.5708,0.5704,0.5726,0.5695,0.5685,0.5667,0.5655,0.5654,0.5656,0.566,0.5813,0.5641,0.5645,0.5648,0.595,0.5957,0.5963,0,0,0,0,0,0,0.5738,0.5743,0.5803,0.5747,0.5739,0.5702,0.5698,0.5758,0.5696,0.5674,0.5663,0.5662,0.5649,0.5659,0.5661,0.5757,0.5636,0.564,0.5643,0.5645,0.5956,0.5961,0,0,0,0,0,0,0.5739,0.5743,0.5747,0.5741,0.5733,0.5714,0.5754,0.578,0.5646,0.5677,0.5632,0.5626,0.5653,0.5654,0.5662,0.5758,0.5757,0.5637,0.5639,0.5641,0.5642,0,0,0,0,0,0,0,0.574,0.5728,0.5812,0.5735,0.5728,0.5791,0.579,0.579,0.5645,0.5639,0.5634,0.5629,0.5614,0.5618,0.5623,0.5758,0,0,0.5636,0.5638,0,0,0,0,0,0,0,0,0.5725,0.5727,0.5811,0.5811,0.5811,0.5791,0.579,0.579,0.5644,0.5639,0.5635,0.5631,0.5615,0.5619,0.5622,0,0,0,0,0,0,0,0,0,0,0,0,0,0,0,0.5811,0.5811,0,0.5791,0.579,0.579,0.5643,0.564,0.5636,0.5633,0.5616,0.5619,0.5622,0,0,0,0,0,0,0,0,0,0,0,0,0,0,0,0,0,0,0,0,0,0,0,0,0,0,0,0,0,0,0,0,0,0,0,0,0,0,0,0,0,0,0,0,0,0,0,0,0,0,0,0,0,0,0,0,0,0,0,0,0,0,0,0,0,0,0,0,0]}]]]